Wind_Speed
10 9 6 4 6 9 11 12 12 13 13 13 13 12 11 10 9 9 8 7 7 6 6 5 5 4 4 4 5 5 5 5 5 5 5 5 5 5 4 3 2 1 2
10 9 6 3 6 7 10 13 12 12 13 13 13 12 12 11 10 10 9 8 8 7 7 6 6 5 5 5 5 5 5 6 6 6 6 6 6 6 5 4 3 3 2
10 8 6 2 4 7 10 11 11 12 13 13 13 13 13 12 11 11 10 10 9 8 8 7 6 6 5 4 4 4 4 4 5 5 5 5 6 6 6 5 4 4 3
9 8 6 3 3 7 8 10 11 11 13 13 13 13 14 13 13 12 12 11 10 9 9 8 7 6 5 4 3 2 3 3 4 4 4 5 5 5 6 6 5 4 4
8 8 6 4 1 5 7 9 10 11 12 13 13 13 14 14 14 14 13 12 11 10 9 8 8 7 6 4 3 1 1 1 2 3 4 4 4 4 5 5 5 5 4
7 7 6 4 1 3 5 8 10 11 11 13 14 14 14 15 15 15 14 13 12 11 10 9 9 8 7 5 4 3 2 2 3 3 4 4 5 5 5 5 5 6 6
7 7 6 4 1 1 5 7 10 11 11 13 14 15 16 15 15 15 15 14 13 12 11 10 10 9 8 7 6 5 5 5 5 5 6 6 6 6 6 6 7 7 7
5 5 5 4 2 1 4 7 9 10 11 13 14 16 17 16 16 16 16 15 14 13 13 13 12 12 11 10 10 9 8 8 8 8 9 9 9 9 9 9 9 9 9
3 3 3 3 2 1 3 6 9 10 11 12 13 15 15 16 16 16 17 17 16 15 15 15 14 14 14 13 13 12 12 12 12 12 12 12 12 12 12 12 12 12 12
4 3 3 3 3 2 2 5 7 8 11 12 13 14 16 17 17 17 18 18 17 17 17 17 17 17 17 16 16 16 16 16 15 15 15 15 15 15 16 16 16 15 15
4 4 3 3 4 3 2 4 6 8 10 11 13 14 16 17 18 18 19 19 19 19 19 19 19 19 19 19 19 19 19 19 19 19 19 18 18 18 18 19 19 19 19
4 4 4 4 4 4 3 4 5 8 11 12 14 15 17 18 19 19 20 20 21 21 21 21 21 22 22 22 21 22 22 22 22 22 22 21 21 21 21 21 22 22 22
5 5 6 6 6 6 6 6 7 8 10 13 14 16 17 18 19 20 21 21 22 22 23 23 24 24 24 24 24 24 24 24 24 24 24 24 24 24 24 24 24 25 25
6 6 7 8 8 9 9 9 10 10 11 12 13 15 17 18 19 21 22 24 24 24 25 25 26 27 27 27 27 27 27 27 27 27 27 27 27 27 28 27 28 28 28
8 8 8 9 9 10 10 10 11 12 13 14 14 15 18 19 21 22 24 25 26 26 27 27 28 29 29 29 30 30 30 30 30 30 30 30 30 30 31 31 31 31 31
8 9 9 9 10 11 12 12 13 14 15 17 17 19 20 22 23 24 25 26 26 27 27 29 31 31 31 31 32 32 32 32 32 32 32 32 33 34 34 35 35 35 34
10 10 10 11 11 12 14 14 15 17 18 18 20 20 22 23 24 25 25 25 25 27 29 30 32 32 33 33 34 35 34 33 33 33 34 35 35 36 37 37 37 37 37
12 11 12 13 13 14 15 16 17 19 20 21 21 22 21 23 24 24 25 26 26 27 29 29 31 32 33 33 33 34 34 34 34 35 35 35 36 37 38 38 38 38 39
14 14 14 15 15 16 17 17 19 20 21 23 23 23 24 25 25 26 26 27 27 29 31 32 32 31 32 32 33 34 34 34 35 36 36 38 39 39 40 41 41 40 41
15 16 16 18 18 19 19 19 21 22 23 23 23 25 26 27 27 27 27 28 28 28 30 30 31 31 31 32 34 34 35 35 36 37 38 38 40 41 42 43 43 43 43
16 17 18 19 20 21 21 22 23 24 24 25 26 27 27 27 28 28 28 28 28 29 29 30 30 32 32 32 33 34 34 36 37 38 39 40 40 41 43 44 45 45 46
17 19 20 21 21 22 24 24 25 25 26 27 27 28 28 29 30 30 29 29 29 29 30 31 32 33 33 34 36 36 37 37 38 39 40 41 43 44 45 46 48 49 51
19 20 21 22 23 24 25 26 27 28 28 29 29 30 30 30 30 31 31 32 32 32 33 33 35 36 37 38 39 40 41 41 42 42 44 45 46 47 49 51 53 55 56
20 21 22 23 24 26 27 28 29 30 30 31 31 31 32 32 32 32 32 33 33 34 35 36 37 38 39 40 40 41 41 42 44 46 48 49 51 52 53 55 56 58 60
20 22 23 25 26 27 28 29 30 31 32 33 33 33 33 34 34 34 34 34 34 35 36 37 38 39 41 42 44 45 46 47 49 50 52 53 54 55 56 57 59 60 61
21 23 24 25 26 27 29 30 31 31 32 33 33 34 34 35 35 36 36 36 37 38 39 41 42 43 44 46 47 49 50 51 52 53 54 55 55 56 58 59 60 61 62
Wind_Direction
348 342 328 272 233 221 212 208 203 201 200 197 194 194 195 198 201 198 194 189 182 171 167 160 148 133 120 109 97 88 82 69 62 56 50 47 45 47 47 41 27 340 302
1 355 348 262 218 220 204 199 199 200 198 196 195 194 198 201 201 195 192 187 180 172 168 161 148 140 129 116 105 92 85 73 64 58 53 49 47 46 45 43 35 21 2
359 358 354 302 215 199 191 193 193 193 192 194 195 198 198 200 198 194 193 189 183 178 175 170 161 154 146 131 112 94 80 70 62 54 49 42 35 32 34 28 22 19 17
3 5 1 5 186 180 184 195 194 195 197 200 199 199 199 199 198 196 194 191 187 184 183 183 178 174 167 155 137 109 83 72 58 49 43 38 30 22 17 16 11 7 4
3 6 3 6 176 181 190 198 202 204 202 201 199 199 199 199 200 200 197 193 191 190 191 193 193 193 191 188 183 168 102 60 37 27 23 19 14 11 3 360 359 357 350
7 7 6 13 45 184 199 204 205 206 203 202 202 200 199 200 200 199 196 198 198 199 200 203 205 206 207 210 214 225 254 296 321 331 341 344 342 344 341 336 335 334 331
2 4 7 8 9 202 208 210 209 208 208 207 206 203 204 205 205 206 205 206 206 209 211 214 217 219 221 226 235 248 265 279 292 302 311 317 319 319 319 318 317 316 314
355 355 360 6 349 300 218 206 205 206 206 208 210 209 208 209 211 211 211 214 216 220 224 226 229 232 236 241 247 255 264 274 282 290 298 303 306 306 307 307 307 305 303
357 352 354 355 349 317 231 210 209 210 210 208 207 208 207 210 211 214 218 221 223 228 231 233 236 240 244 249 254 260 266 272 278 283 289 293 296 298 298 297 296 296 296
340 328 331 327 324 314 255 218 214 208 206 207 211 212 212 213 216 219 224 225 227 233 235 238 242 246 250 253 257 263 267 271 275 278 282 286 288 291 293 294 293 291 290
324 306 302 319 318 306 269 219 219 216 212 213 217 218 221 221 221 225 228 229 233 237 240 243 246 250 254 257 260 264 268 271 274 277 279 282 285 287 289 289 290 289 288
302 300 299 301 305 292 266 244 231 225 224 225 225 226 230 230 229 232 234 236 239 241 244 248 251 254 257 260 263 265 267 270 273 275 277 279 281 282 284 286 286 286 286
284 285 289 289 289 278 267 259 245 239 238 236 234 233 233 235 235 236 239 241 243 245 248 251 254 256 258 261 263 265 268 270 272 274 275 277 278 279 281 282 282 283 283
283 275 274 280 280 275 267 265 251 247 243 240 239 239 238 240 242 242 244 246 246 248 249 250 254 257 260 262 265 267 268 270 272 273 274 275 276 278 279 280 281 281 282
290 279 273 271 275 278 275 272 261 253 248 245 245 247 247 246 248 248 249 250 250 252 250 252 256 259 261 263 264 265 267 269 271 272 273 274 275 277 278 279 279 280 281
294 284 278 272 274 275 277 278 271 267 266 263 257 256 257 255 254 255 255 255 255 254 256 257 259 261 262 264 265 266 267 270 271 272 273 275 275 276 278 278 279 279 279
296 294 289 281 280 280 276 272 272 273 274 271 263 266 264 263 266 264 260 263 263 259 260 262 262 264 264 265 267 267 267 271 271 271 274 274 275 275 276 277 278 278 278
295 295 290 286 283 282 280 276 278 275 274 274 274 274 270 273 272 274 271 267 267 266 267 269 267 266 266 267 268 270 269 271 271 272 274 275 276 276 276 277 277 277 277
289 291 289 285 284 282 281 279 280 281 281 282 278 278 277 281 281 277 277 275 271 268 267 268 269 268 268 269 271 273 271 271 272 270 273 275 274 274 275 275 275 275 275
282 284 285 285 285 284 284 281 281 281 282 284 283 282 283 283 281 279 279 279 276 275 273 273 273 273 272 273 272 272 272 272 271 271 273 274 274 274 274 275 275 275 275
278 281 282 283 283 284 285 286 285 282 284 285 286 286 285 285 283 282 282 282 278 276 273 274 276 275 274 274 274 273 274 275 274 273 274 275 276 276 276 276 276 275 275
275 278 280 281 283 284 286 286 288 288 288 287 286 286 287 288 287 286 285 284 282 280 277 277 277 276 275 274 274 274 275 275 275 275 274 276 277 277 277 277 277 277 277
274 276 279 280 282 284 285 285 286 287 288 288 288 287 287 289 290 289 288 286 284 281 280 279 278 277 276 275 275 275 275 275 277 277 278 278 278 278 278 278 278 278 278
273 275 277 279 281 283 284 285 285 286 287 287 287 288 287 288 288 290 289 286 285 284 282 281 282 281 280 280 279 279 279 279 280 280 280 281 281 280 280 279 279 278 278
273 276 278 280 282 283 284 285 286 286 286 287 287 288 288 288 288 288 288 287 286 286 285 284 284 284 283 282 282 283 282 282 282 282 283 282 282 281 281 281 281 280 280
275 277 280 281 282 284 285 286 287 287 287 286 287 287 288 288 288 288 288 288 287 287 286 286 286 285 284 283 283 283 283 283 284 283 283 283 283 283 283 283 283 282 282
Height
5844 5841 5840 5840 5841 5842 5844 5848 5851 5854 5857 5860 5862 5864 5866 5868 5869 5871 5872 5873 5874 5875 5876 5876 5876 5876 5876 5876 5876 5875 5875 5874 5873 5873 5872 5872 5871 5871 5870 5870 5870 5869 5869
5843 5841 5840 5839 5840 5841 5844 5847 5850 5852 5855 5857 5859 5861 5864 5866 5868 5869 5871 5872 5873 5874 5875 5876 5876 5876 5876 5876 5876 5876 5875 5874 5873 5873 5872 5872 5872 5871 5870 5870 5870 5869 5868
5844 5842 5841 5840 5840 5841 5842 5845 5848 5850 5852 5855 5857 5860 5862 5864 5866 5868 5870 5871 5872 5873 5874 5875 5876 5876 5876 5876 5876 5876 5875 5875 5874 5873 5873 5872 5872 5871 5870 5870 5869 5869 5868
5844 5842 5841 5839 5840 5840 5842 5844 5846 5849 5851 5853 5855 5857 5860 5862 5864 5867 5868 5870 5871 5872 5873 5874 5875 5876 5876 5876 5876 5875 5875 5875 5874 5874 5873 5873 5872 5871 5870 5870 5869 5868 5868
5844 5842 5841 5839 5839 5840 5841 5843 5844 5847 5849 5851 5853 5856 5858 5861 5863 5865 5867 5868 5870 5871 5872 5873 5874 5874 5875 5875 5875 5875 5874 5874 5874 5873 5873 5872 5871 5871 5870 5869 5868 5867 5867
5844 5842 5841 5839 5838 5839 5840 5841 5843 5845 5847 5849 5852 5854 5856 5859 5861 5863 5865 5867 5868 5869 5871 5871 5872 5873 5873 5873 5873 5873 5873 5873 5873 5872 5872 5871 5870 5869 5869 5868 5867 5866 5865
5843 5842 5841 5839 5838 5838 5839 5840 5842 5844 5846 5847 5849 5852 5854 5857 5859 5861 5863 5864 5866 5867 5869 5870 5870 5871 5871 5871 5872 5871 5871 5871 5871 5870 5870 5869 5868 5867 5867 5866 5865 5864 5863
5842 5841 5840 5839 5838 5838 5838 5839 5840 5842 5843 5845 5847 5850 5852 5854 5857 5859 5861 5862 5864 5865 5866 5867 5868 5868 5869 5869 5869 5869 5868 5868 5868 5867 5867 5866 5865 5865 5864 5863 5862 5861 5861
5841 5840 5840 5839 5838 5837 5837 5838 5839 5840 5842 5843 5845 5847 5850 5852 5854 5856 5858 5860 5861 5862 5863 5864 5864 5865 5865 5865 5865 5865 5865 5865 5864 5864 5863 5862 5862 5861 5860 5859 5859 5858 5857
5840 5839 5839 5838 5838 5837 5836 5836 5837 5838 5840 5842 5844 5846 5848 5849 5851 5853 5855 5856 5857 5858 5859 5860 5860 5861 5861 5861 5861 5861 5861 5860 5860 5859 5859 5858 5857 5856 5856 5855 5854 5853 5853
5838 5837 5837 5837 5836 5835 5835 5835 5836 5837 5838 5840 5841 5843 5845 5846 5848 5849 5851 5851 5852 5853 5854 5855 5856 5856 5856 5856 5856 5856 5856 5855 5855 5854 5854 5853 5852 5851 5850 5849 5848 5848 5847
5836 5836 5836 5835 5835 5834 5834 5834 5834 5834 5836 5837 5838 5840 5841 5842 5844 5845 5847 5847 5848 5849 5850 5850 5851 5851 5851 5851 5850 5850 5850 5849 5849 5848 5848 5847 5846 5845 5844 5843 5842 5841 5840
5835 5834 5833 5833 5833 5832 5832 5831 5831 5832 5833 5834 5835 5836 5837 5838 5839 5840 5842 5842 5843 5843 5844 5844 5845 5845 5845 5844 5844 5844 5843 5843 5842 5842 5841 5840 5839 5838 5837 5836 5835 5834 5833
5832 5831 5831 5830 5830 5829 5829 5829 5829 5829 5830 5830 5831 5832 5833 5834 5834 5835 5836 5836 5836 5837 5837 5837 5838 5838 5837 5837 5837 5836 5836 5836 5835 5834 5833 5832 5831 5830 5829 5828 5827 5826 5825
5828 5828 5827 5827 5827 5826 5826 5827 5827 5826 5826 5826 5827 5828 5828 5828 5829 5829 5829 5829 5830 5829 5829 5830 5830 5829 5829 5829 5828 5828 5827 5827 5826 5825 5824 5823 5822 5821 5820 5819 5818 5817 5816
5824 5824 5824 5824 5824 5823 5823 5823 5823 5823 5822 5821 5822 5822 5822 5822 5822 5822 5822 5822 5822 5821 5821 5821 5821 5821 5821 5820 5819 5819 5818 5818 5817 5816 5815 5814 5813 5812 5811 5810 5809 5808 5806
5820 5820 5820 5819 5819 5819 5819 5819 5819 5818 5818 5816 5814 5814 5814 5815 5815 5815 5814 5814 5813 5813 5813 5812 5812 5811 5810 5810 5810 5809 5809 5808 5807 5806 5805 5804 5803 5802 5801 5800 5799 5798 5796
5816 5816 5815 5815 5815 5814 5814 5813 5813 5812 5812 5811 5810 5809 5807 5808 5808 5808 5807 5806 5804 5804 5804 5803 5802 5801 5801 5801 5800 5799 5798 5798 5797 5796 5795 5794 5792 5791 5789 5788 5788 5786 5784
5811 5811 5811 5810 5810 5809 5808 5808 5807 5806 5805 5804 5803 5803 5802 5802 5801 5801 5799 5797 5796 5796 5796 5795 5793 5792 5791 5791 5790 5789 5788 5787 5786 5785 5783 5782 5781 5779 5777 5776 5776 5774 5772
5806 5806 5806 5805 5804 5803 5803 5802 5801 5800 5799 5797 5796 5795 5794 5793 5792 5791 5790 5789 5788 5787 5786 5785 5784 5783 5782 5781 5780 5779 5777 5776 5775 5773 5771 5770 5769 5767 5765 5764 5762 5761 5759
5801 5801 5800 5799 5798 5797 5797 5796 5795 5793 5792 5791 5789 5788 5786 5785 5784 5782 5781 5780 5779 5777 5776 5776 5775 5773 5772 5771 5769 5768 5766 5765 5763 5761 5760 5758 5756 5754 5752 5750 5748 5746 5744
5795 5795 5794 5794 5793 5792 5791 5790 5788 5787 5786 5784 5782 5781 5779 5778 5776 5774 5772 5771 5770 5768 5767 5766 5765 5763 5762 5761 5759 5757 5755 5753 5751 5749 5747 5745 5743 5741 5738 5736 5733 5731 5728
5789 5789 5788 5787 5786 5785 5784 5782 5781 5780 5778 5777 5775 5773 5771 5769 5767 5766 5764 5762 5761 5759 5758 5756 5754 5752 5751 5749 5747 5745 5743 5741 5739 5736 5734 5731 5729 5726 5723 5720 5717 5714 5711
5783 5782 5781 5780 5779 5778 5777 5775 5774 5772 5770 5768 5766 5765 5763 5761 5759 5757 5755 5753 5751 5750 5748 5746 5744 5741 5739 5737 5735 5732 5729 5727 5725 5722 5719 5716 5713 5709 5706 5702 5698 5695 5691
5776 5776 5775 5773 5772 5770 5768 5767 5765 5763 5761 5759 5757 5756 5754 5752 5749 5747 5745 5743 5741 5739 5737 5734 5732 5729 5727 5724 5721 5718 5715 5712 5709 5706 5703 5699 5695 5691 5687 5683 5678 5674 5670
5769 5768 5767 5765 5764 5762 5760 5759 5757 5755 5753 5750 5748 5746 5744 5742 5739 5737 5734 5732 5730 5727 5724 5721 5719 5716 5713 5710 5707 5703 5700 5696 5693 5689 5685 5681 5676 5672 5668 5663 5659 5654 5649